sat.trackr.live / text

‹ back to catalog

STARLINK-11154 [DTC]

NORAD 61059 · 2024-164K

PAYLOAD ACTIVE UNKNOWN

§ Identity

Operator
Country
US
Launch date
2024-09-13
Launch site
AFWTR
Launch vehicle
Mass (kg)
RCS (m²)

Purposes: comms

External: N2YO · Heavens-Above · Gunter

§ Orbital elements

Epoch: 2026-05-25T03:27:46.423584Z

Period
91.74 min
Inclination
53.1590°
Eccentricity
0.0000882
Mean motion
15.69711944 rev/d
Perigee alt
359.1 km
Apogee alt
360.3 km
Semi-major
6,737.9 km
B*
3.1111e-6
RAAN
294.6136°
Arg perigee
103.9648°
Mean anomaly
256.1468°
Rev number
9,742

§ Raw data

STARLINK-11154 [DTC]1 61059U 24164K   26145.14428731 -.00000211  00000+0  31111-5 0  99922 61059  53.1590 294.6136 0000882 103.9648 256.1468 15.69711944 97427

JSON: /api/v1/satellites/61059 · /tle

For live sub-satellite position, see the globe view (requires WebGL).

§ Visibility from observer

Set your observer location to see the next 7 days of passes ≥ 10°. The values pass through the URL so the page stays shareable.

No JS? Fill the form by hand. The geolocation button needs JavaScript.